Location: Bouchavesnes-Bergen
(49.9859°N, 2.9203°E)
Time: 13:39:08
(UTC+00:00)

NOAA 16 DEB - Pass Details

Date: 30 September 2021
Orbit: 798 x 841 km, 98.8° (Epoch: 16 October)

Event Time Altitude Azimuth Distance (km) Brightness Sun altitude
Exits shadow 23:31:53 12° 332° (NNW) 2,213 ? -43.2°
Drops below altitude 10° 23:32:21 10° 334° (NNW) 2,386 ? -43.2°
Sets 23:34:48 0° 341° (NNW) 3,319 ? -43.2°
